When you browse on this site, cookies collect data to enhance your experience and personalize the content and advertising you see.
Visit our Privacy Policy to learn more. By continuing to use the site, you agree to this use of cookies and data.

Hourly Weather Sekondi

Today, 26 September, Saturday

Time Temperature Precipitation Wind Pressure Humidity
00:00 +25°C° 0 mm 3 mps 759 mmHg 97%
01:00 +25°C° 0 mm 3 mps 759 mmHg 97%
02:00 +25°C° 0 mm 3 mps 758 mmHg 97%
03:00 +25°C° 0 mm 3 mps 758 mmHg 98%
04:00 +25°C° 0 mm 3 mps 758 mmHg 98%
05:00 +25°C° 0 mm 3 mps 758 mmHg 98%
06:00 +25°C° 0 mm 3 mps 758 mmHg 97%
07:00 +26°C° 0.2 mm 3 mps 759 mmHg 92%
08:00 +27°C° 0.2 mm 3 mps 759 mmHg 86%
09:00 +28°C° 0.2 mm 4 mps 760 mmHg 81%
10:00 +29°C° 0.2 mm 4 mps 759 mmHg 80%
11:00 +29°C° 0.2 mm 4 mps 759 mmHg 80%
12:00 +29°C° 0.2 mm 5 mps 758 mmHg 79%
13:00 +29°C° 0.3 mm 5 mps 758 mmHg 79%
14:00 +29°C° 0.3 mm 5 mps 757 mmHg 79%
15:00 +29°C° 0.3 mm 5 mps 756 mmHg 78%
16:00 +28°C° 0.1 mm 5 mps 756 mmHg 81%
17:00 +27°C° 0.1 mm 4 mps 757 mmHg 84%
18:00 +27°C° 0.1 mm 4 mps 757 mmHg 87%
19:00 +26°C° 0 mm 3 mps 757 mmHg 89%
20:00 +26°C° 0 mm 3 mps 758 mmHg 91%
21:00 +25°C° 0 mm 3 mps 758 mmHg 93%
22:00 +25°C° 0 mm 3 mps 758 mmHg 94%
23:00 +25°C° 0 mm 3 mps 758 mmHg 95%

Tomorrow, 27 September, Sunday

Time Temperature Precipitation Wind Pressure Humidity
00:00 +25°C° 0 mm 3 mps 758 mmHg 96%
01:00 +25°C° 0 mm 3 mps 757 mmHg 96%
02:00 +25°C° 0 mm 3 mps 757 mmHg 95%
03:00 +25°C° 0 mm 3 mps 757 mmHg 95%
04:00 +25°C° 0.1 mm 3 mps 757 mmHg 94%
05:00 +25°C° 0.1 mm 3 mps 757 mmHg 94%
06:00 +25°C° 0.1 mm 2 mps 757 mmHg 93%
07:00 +26°C° 0.1 mm 2 mps 758 mmHg 92%
08:00 +26°C° 0.1 mm 3 mps 758 mmHg 90%
09:00 +26°C° 0.1 mm 3 mps 759 mmHg 88%
10:00 +28°C° 0.1 mm 3 mps 758 mmHg 82%
11:00 +29°C° 0.1 mm 4 mps 758 mmHg 76%
12:00 +30°C° 0.1 mm 4 mps 758 mmHg 70%
13:00 +30°C° 0.1 mm 5 mps 757 mmHg 70%
14:00 +29°C° 0.1 mm 5 mps 756 mmHg 70%
15:00 +29°C° 0.1 mm 5 mps 756 mmHg 71%
16:00 +28°C° 0 mm 5 mps 756 mmHg 74%
17:00 +28°C° 0 mm 5 mps 756 mmHg 77%
18:00 +27°C° 0 mm 4 mps 756 mmHg 80%
19:00 +26°C° 0 mm 4 mps 757 mmHg 84%
20:00 +26°C° 0 mm 3 mps 757 mmHg 88%
21:00 +25°C° 0 mm 3 mps 758 mmHg 92%
22:00 +25°C° 0 mm 3 mps 758 mmHg 92%
23:00 +25°C° 0 mm 3 mps 758 mmHg 93%

Day after tomorrow, 28 September, Monday

Time Temperature Precipitation Wind Pressure Humidity
00:00 +25°C° 0 mm 3 mps 758 mmHg 94%
01:00 +25°C° 0 mm 3 mps 757 mmHg 92%
02:00 +25°C° 0 mm 4 mps 757 mmHg 91%
03:00 +25°C° 0 mm 4 mps 756 mmHg 90%
04:00 +25°C° 0 mm 4 mps 757 mmHg 91%
05:00 +25°C° 0 mm 3 mps 757 mmHg 91%
06:00 +25°C° 0 mm 3 mps 757 mmHg 92%
07:00 +26°C° 0 mm 2 mps 758 mmHg 87%
08:00 +27°C° 0 mm 2 mps 758 mmHg 83%
09:00 +28°C° 0 mm 2 mps 759 mmHg 78%
10:00 +29°C° 0.1 mm 2 mps 759 mmHg 75%
11:00 +30°C° 0.1 mm 3 mps 758 mmHg 71%
12:00 +30°C° 0.1 mm 3 mps 758 mmHg 67%
13:00 +30°C° 0.8 mm 3 mps 757 mmHg 71%
14:00 +29°C° 0.8 mm 4 mps 756 mmHg 75%
15:00 +29°C° 0.8 mm 4 mps 756 mmHg 79%
16:00 +28°C° 0.2 mm 4 mps 756 mmHg 82%
17:00 +27°C° 0.2 mm 4 mps 756 mmHg 84%
18:00 +26°C° 0.2 mm 3 mps 756 mmHg 87%
19:00 +26°C° 0 mm 3 mps 757 mmHg 89%
20:00 +26°C° 0 mm 3 mps 757 mmHg 92%
21:00 +25°C° 0 mm 3 mps 758 mmHg 94%
22:00 +25°C° 0 mm 3 mps 758 mmHg 94%
23:00 +25°C° 0 mm 3 mps 758 mmHg 93%

29 September, Tuesday

Time Temperature Precipitation Wind Pressure Humidity
00:00 +26°C° 0 mm 3 mps 758 mmHg 93%
01:00 +26°C° 0 mm 3 mps 758 mmHg 92%
02:00 +26°C° 0 mm 3 mps 758 mmHg 92%
03:00 +26°C° 0 mm 3 mps 757 mmHg 91%
04:00 +26°C° 0 mm 3 mps 758 mmHg 92%
05:00 +26°C° 0 mm 3 mps 758 mmHg 92%
06:00 +26°C° 0 mm 3 mps 758 mmHg 92%
07:00 +26°C° 0.1 mm 3 mps 758 mmHg 89%
08:00 +27°C° 0.1 mm 3 mps 759 mmHg 86%
09:00 +28°C° 0.1 mm 2 mps 759 mmHg 83%
10:00 +28°C° 0.1 mm 3 mps 759 mmHg 81%
11:00 +29°C° 0.1 mm 3 mps 758 mmHg 78%
12:00 +29°C° 0.1 mm 4 mps 758 mmHg 76%
13:00 +30°C° 0.1 mm 4 mps 757 mmHg 75%
14:00 +30°C° 0.1 mm 5 mps 757 mmHg 73%
15:00 +30°C° 0.1 mm 5 mps 756 mmHg 72%
16:00 +29°C° 0 mm 5 mps 756 mmHg 77%
17:00 +28°C° 0 mm 4 mps 757 mmHg 81%
18:00 +27°C° 0 mm 4 mps 757 mmHg 86%
19:00 +26°C° 0 mm 4 mps 757 mmHg 88%
20:00 +26°C° 0 mm 4 mps 758 mmHg 90%
21:00 +26°C° 0 mm 4 mps 759 mmHg 92%
22:00 +25°C° 0 mm 4 mps 759 mmHg 92%
23:00 +25°C° 0 mm 4 mps 758 mmHg 92%

30 September, Wednesday

Time Temperature Precipitation Wind Pressure Humidity
00:00 +25°C° 0 mm 4 mps 758 mmHg 92%
01:00 +26°C° 0.1 mm 4 mps 758 mmHg 92%
02:00 +26°C° 0.1 mm 4 mps 757 mmHg 91%
03:00 +26°C° 0.1 mm 3 mps 757 mmHg 91%
04:00 +26°C° 0.1 mm 3 mps 757 mmHg 91%
05:00 +25°C° 0.1 mm 3 mps 758 mmHg 92%
06:00 +25°C° 0.1 mm 3 mps 758 mmHg 92%
07:00 +26°C° 0 mm 3 mps 758 mmHg 90%
08:00 +27°C° 0 mm 3 mps 759 mmHg 87%
09:00 +27°C° 0 mm 3 mps 759 mmHg 84%
10:00 +29°C° 0 mm 3 mps 759 mmHg 77%
11:00 +30°C° 0 mm 4 mps 758 mmHg 71%
12:00 +33°C° 0 mm 4 mps 758 mmHg 64%
13:00 +32°C° 0.3 mm 5 mps 757 mmHg 67%
14:00 +30°C° 0.3 mm 5 mps 756 mmHg 70%
15:00 +30°C° 0.3 mm 5 mps 756 mmHg 73%
16:00 +29°C° 0.3 mm 5 mps 756 mmHg 77%
17:00 +28°C° 0.3 mm 4 mps 756 mmHg 82%
18:00 +27°C° 0.3 mm 3 mps 756 mmHg 87%
19:00 +26°C° 0 mm 4 mps 757 mmHg 88%
20:00 +26°C° 0 mm 5 mps 757 mmHg 89%
21:00 +26°C° 0 mm 5 mps 757 mmHg 90%
22:00 +26°C° 0 mm 5 mps 757 mmHg 90%
23:00 +26°C° 0 mm 4 mps 757 mmHg 90%

1 October, Thursday

Time Temperature Precipitation Wind Pressure Humidity
00:00 +26°C° 0 mm 4 mps 757 mmHg 90%
01:00 +26°C° 0.1 mm 4 mps 757 mmHg 91%
02:00 +26°C° 0.1 mm 4 mps 757 mmHg 91%
03:00 +26°C° 0.1 mm 4 mps 756 mmHg 91%
04:00 +25°C° 0.2 mm 4 mps 756 mmHg 92%
05:00 +25°C° 0.2 mm 4 mps 757 mmHg 92%
06:00 +25°C° 0.2 mm 4 mps 757 mmHg 92%
07:00 +26°C° 0.1 mm 4 mps 757 mmHg 90%
08:00 +27°C° 0.1 mm 4 mps 758 mmHg 87%
09:00 +27°C° 0.1 mm 4 mps 758 mmHg 85%
10:00 +28°C° 0.7 mm 5 mps 757 mmHg 84%
11:00 +28°C° 0.7 mm 5 mps 757 mmHg 83%
12:00 +28°C° 0.7 mm 6 mps 757 mmHg 82%
13:00 +29°C° 0.5 mm 6 mps 756 mmHg 80%
14:00 +29°C° 0.5 mm 6 mps 755 mmHg 78%
15:00 +29°C° 0.5 mm 6 mps 755 mmHg 76%
16:00 +28°C° 0.1 mm 5 mps 755 mmHg 79%
17:00 +27°C° 0.1 mm 5 mps 755 mmHg 83%
18:00 +26°C° 0.1 mm 4 mps 755 mmHg 86%
19:00 +26°C° 0 mm 4 mps 756 mmHg 87%
20:00 +26°C° 0 mm 4 mps 757 mmHg 89%
21:00 +26°C° 0 mm 4 mps 757 mmHg 90%
22:00 +26°C° 0.1 mm 4 mps 757 mmHg 90%
23:00 +26°C° 0.1 mm 4 mps 757 mmHg 90%
Show more